Showing default

LEMUR 2 CAEL, 58903

Orbit data source: Space-Track

LEMUR 2 CAEL, 58903 is an American payload satellite in SSO that was launched on Wed, 31 Jan 2024 UTC via an ELECTRON launch vehicle from the Rocket Lab Launch Complex (RLLC). Payload-class satellites include a variety of spacecraft equipped with specific instruments for various scientific and technological missions. These include communications satellites like Starlink; space stations such as the ISS; scientific satellites like the Hubble; Earth observation satellites from companies like Planet Labs, Umbra, and HawkEye 360; GPS; miniature CubeSats for education and research; and military/defense satellites.

Loading next visibility...
Identifier
58903, 2024-022E
Orbit
SSO
Last TLE update
16 hours ago
Origin
Manufacturer
Spire/Glasgow
Mission
Operational Commercial Early Warn
Bus & Motor
CUBESAT 3U, Unknown motor
Mass
~25 kg wet, ~25 kg dry
Launch date (UTC)
2024-01-31 (1 year ago)
Launch vehicle
ELECTRON
Launch site
Rocket Lab Launch Complex (RLLC)
Object type
Payload
Rocket body
Debris
Shape & HBR
Box + 2 Pan, 0.5 m
Radar Cross Section
0.146 m², Medium (>0.1 m² and < 1m²)

Expand to show TLE details & history

TLE from 16 hours ago
0 LEMUR 2 CAEL
1 58903U 24022E   25199.81273296  .00008553  00000-0  30651-3 0  9998
2 58903  97.4457  43.4085 0009598 198.7345 161.3542 15.28940408 81209
Epoch: 2025-07-18T19:30Z
TLE epoch observation values (Epoch: 2025-07-18T19:30:20.127Z)
Latitude
-0.00014°
Longitude
173.96584°
Altitude
488.318 km
Speed
7.617 km/s
True Right ascension
02h 53m 38s
True Declination
0° 00' 00"
Sunlit
Object was in daylight at epoch
Visualization orbit readout
Latitude
13.28325°
Longitude
172.86473°
Altitude
487.865 km
Speed
7.619 km/s
Apparent Right ascension
05h 57m 36s
Apparent Declination
-29° 46' 29"
Sunlit
Object is in daylight
Visualization observer readout
Local Sidereal Time
00:05:48
Azimuth
114.799° SE
Elevation
-17.148°
Doppler factor
1
Orbital elements
Apogee altitude
482.513 km
Perigee altitude
469.356 km
Semi-major axis
6,854.071 km
Eccentricity
0.00096
Inclination
97.4457°
RAAN
43.4085°
Arg. of periapsis
198.7345°
True anomaly
161.38932°
Mean anomaly
161.3542°
Eccentric anomaly
161.37177°
Mean motion
3.8249 °/min
Orbital period
94.12 mins
BSTAR
0.00030651
Loading maneuver chart data...
Loading SW <> Apogee altitude chart data...
Loading historical data...
Loading historical data...
Loading historical data...
Loading historical data...
Loading historical data...
Loading historical data...
Loading historical data...
|